DMSP 5D-2 F13 DEB, 40676

Orbit data source: Space-Track

DMSP 5D-2 F13 DEB, 40676 is space debris in SSO originally from a launch on Fri, 24 Mar 1995 UTC launched from the Air Force Western Test Range (AFWTR). Debris objects in space refer to the collection of defunct objects orbiting the Earth. Examples of debris include non-operational satellites, rocket bodies, and fragments generated from explosions, collisions, or faulty payload assembly.

Loading next visibility...
Identifier
40676, 1995-015FQ
Orbit
SSO
Country
Flag of USUS
Related business
Manufacturer
Unknown
Mission
Spacecraft
Bus & Motor
Unknown
Mass
Unknown
Launch date (UTC)
1995-03-24 (31 years ago)
Launch vehicle
Unknown
Launch site
Air Force Western Test Range (AFWTR)
Object type
Payload
Rocket body
Debris
Shape & HBR
Unknown shape, 0.1 m
Radar Cross Section
Small (<0.1 m²)

Expand to show TLE details & history
Last TLE update: 3 days ago

TLE from 3 days ago
0 DMSP 5D-2 F13 DEB
1 40676U 95015FQ  26170.33599078  .00003636  00000-0  11416-2 0  9996
2 40676  98.6789 210.4599 0004701  37.8922 322.2596 14.41137767576711
Epoch: 2026-06-19T08:03Z
TLE epoch observation values (Epoch: 2026-06-19T08:03:49.603Z)
Latitude
-0.00006°
Longitude
-178.0632°
Altitude
755.034 km
Speed
7.478 km/s
True Right ascension
14h 01m 50s
True Declination
0° 00' 00"
Sunlit
Object was in full shadow at epoch
Visualization orbit readout
Latitude
Unknown
Longitude
Unknown
Altitude
Unknown
Speed
Unknown
Apparent Right ascension
Unknown
Apparent Declination
Unknown
Sunlit
N/A
Visualization observer readout
Local Sidereal Time
21:43:16
Azimuth
Unknown
Elevation
Unknown
Doppler factor
Unknown
Orbital elements
Apogee altitude
755.222 km
Perigee altitude
748.519 km
Semi-major axis
7,130.008 km
Eccentricity
0.00047
Inclination
98.6789°
RAAN
210.4599°
Arg. of periapsis
37.8922°
True anomaly
322.22661°
Mean anomaly
322.2596°
Eccentric anomaly
322.24311°
Mean motion
3.60502 °/min
Orbital period
99.86 mins
BSTAR
0.0011416

Documentation

Showing up to 5 results
|